• In Hungary
  • List of Countries
  • For 7 days
  • Water Temperature
  • Satellite Maps
  • Weather Map
  • News
  • Weather Widgets
  • user-avatar
    Login

    Hourly Weather Stoneham

    Today, 19 June, Tuesday

    Time Temperature Precipitation Wind Pressure Humidity
    00:00 +25°C° 0.4 mm 5 mps 750 mmHg 90%
    01:00 +25°C° 0.4 mm 5 mps 750 mmHg 90%
    02:00 +25°C° 0 mm 4 mps 750 mmHg 90%
    03:00 +23°C° 0 mm 4 mps 750 mmHg 89%
    04:00 +23°C° 0 mm 4 mps 749 mmHg 89%
    05:00 +23°C° 0 mm 4 mps 750 mmHg 81%
    06:00 +25°C° 0 mm 5 mps 750 mmHg 72%
    07:00 +25°C° 0 mm 5 mps 751 mmHg 64%
    08:00 +26°C° 0 mm 5 mps 751 mmHg 55%
    09:00 +27°C° 0 mm 5 mps 752 mmHg 45%
    10:00 +28°C° 0 mm 5 mps 752 mmHg 36%
    11:00 +29°C° 0 mm 5 mps 752 mmHg 33%
    12:00 +30°C° 0 mm 5 mps 752 mmHg 30%
    13:00 +30°C° 0 mm 4 mps 752 mmHg 27%
    14:00 +30°C° 0 mm 4 mps 752 mmHg 27%
    15:00 +30°C° 0 mm 4 mps 752 mmHg 28%
    16:00 +30°C° 0 mm 4 mps 752 mmHg 28%
    17:00 +28°C° 0 mm 3 mps 753 mmHg 35%
    18:00 +26°C° 0 mm 3 mps 753 mmHg 41%
    19:00 +24°C° 0 mm 2 mps 754 mmHg 48%
    20:00 +21°C° 0 mm 2 mps 754 mmHg 51%
    21:00 +20°C° 0 mm 2 mps 755 mmHg 54%
    22:00 +19°C° 0 mm 2 mps 756 mmHg 57%
    23:00 +18°C° 0 mm 2 mps 756 mmHg 58%

    Tomorrow, 20 June, Wednesday

    Time Temperature Precipitation Wind Pressure Humidity
    00:00 +18°C° 0 mm 1 mps 756 mmHg 60%
    01:00 +18°C° 0 mm 1 mps 756 mmHg 62%
    02:00 +16°C° 0 mm 1 mps 756 mmHg 63%
    03:00 +16°C° 0 mm 1 mps 756 mmHg 63%
    04:00 +15°C° 0 mm 1 mps 756 mmHg 64%
    05:00 +18°C° 0 mm 1 mps 756 mmHg 59%
    06:00 +20°C° 0 mm 1 mps 756 mmHg 54%
    07:00 +22°C° 0 mm 1 mps 756 mmHg 49%
    08:00 +24°C° 0 mm 1 mps 756 mmHg 44%
    09:00 +26°C° 0 mm 2 mps 755 mmHg 40%
    10:00 +28°C° 0 mm 2 mps 755 mmHg 35%
    11:00 +29°C° 0 mm 3 mps 755 mmHg 33%
    12:00 +30°C° 0 mm 3 mps 755 mmHg 31%
    13:00 +32°C° 0 mm 4 mps 754 mmHg 29%
    14:00 +30°C° 0 mm 4 mps 754 mmHg 32%
    15:00 +29°C° 0 mm 4 mps 753 mmHg 35%
    16:00 +28°C° 0 mm 5 mps 753 mmHg 38%
    17:00 +27°C° 0 mm 5 mps 753 mmHg 44%
    18:00 +26°C° 0 mm 4 mps 753 mmHg 49%
    19:00 +23°C° 0 mm 4 mps 752 mmHg 54%
    20:00 +22°C° 0 mm 4 mps 753 mmHg 59%
    21:00 +21°C° 0 mm 4 mps 753 mmHg 64%
    22:00 +20°C° 0 mm 3 mps 753 mmHg 69%
    23:00 +19°C° 0 mm 3 mps 753 mmHg 71%

    Day after tomorrow, 21 June, Thursday

    Time Temperature Precipitation Wind Pressure Humidity
    00:00 +18°C° 0 mm 3 mps 753 mmHg 72%
    01:00 +18°C° 0 mm 3 mps 753 mmHg 73%
    02:00 +17°C° 0 mm 3 mps 753 mmHg 73%
    03:00 +17°C° 0 mm 3 mps 753 mmHg 73%
    04:00 +17°C° 0 mm 2 mps 753 mmHg 74%
    05:00 +18°C° 0 mm 3 mps 753 mmHg 70%
    06:00 +19°C° 0 mm 3 mps 753 mmHg 66%
    07:00 +21°C° 0 mm 3 mps 754 mmHg 63%
    08:00 +22°C° 0 mm 3 mps 754 mmHg 58%
    09:00 +23°C° 0 mm 4 mps 754 mmHg 54%
    10:00 +25°C° 0 mm 4 mps 754 mmHg 49%
    11:00 +25°C° 0 mm 4 mps 754 mmHg 48%
    12:00 +25°C° 0 mm 4 mps 754 mmHg 47%
    13:00 +26°C° 0 mm 3 mps 754 mmHg 46%
    14:00 +26°C° 0 mm 3 mps 755 mmHg 45%
    15:00 +26°C° 0 mm 3 mps 755 mmHg 44%
    16:00 +26°C° 0 mm 3 mps 755 mmHg 42%
    17:00 +24°C° 0 mm 3 mps 755 mmHg 50%
    18:00 +21°C° 0 mm 2 mps 756 mmHg 57%
    19:00 +19°C° 0 mm 2 mps 756 mmHg 65%
    20:00 +18°C° 0 mm 2 mps 757 mmHg 68%
    21:00 +18°C° 0 mm 1 mps 758 mmHg 72%
    22:00 +16°C° 0 mm 1 mps 758 mmHg 75%
    23:00 +15°C° 0 mm 1 mps 758 mmHg 75%

    22 June, Friday

    Time Temperature Precipitation Wind Pressure Humidity
    00:00 +15°C° 0 mm 1 mps 759 mmHg 76%
    01:00 +14°C° 0 mm 1 mps 759 mmHg 76%
    02:00 +14°C° 0 mm 1 mps 759 mmHg 75%
    03:00 +14°C° 0 mm 1 mps 759 mmHg 75%
    04:00 +13°C° 0 mm 1 mps 760 mmHg 74%
    05:00 +15°C° 0 mm 1 mps 760 mmHg 67%
    06:00 +18°C° 0 mm 1 mps 760 mmHg 61%
    07:00 +20°C° 0 mm 1 mps 761 mmHg 54%
    08:00 +22°C° 0 mm 1 mps 761 mmHg 48%
    09:00 +25°C° 0 mm 1 mps 761 mmHg 43%
    10:00 +28°C° 0 mm 1 mps 761 mmHg 37%
    11:00 +29°C° 0 mm 1 mps 761 mmHg 33%
    12:00 +29°C° 0 mm 1 mps 761 mmHg 30%
    13:00 +30°C° 0 mm 2 mps 760 mmHg 27%
    14:00 +30°C° 0 mm 2 mps 760 mmHg 28%
    15:00 +30°C° 0 mm 3 mps 760 mmHg 29%
    16:00 +29°C° 0 mm 3 mps 760 mmHg 30%
    17:00 +27°C° 0 mm 4 mps 760 mmHg 36%
    18:00 +25°C° 0 mm 4 mps 760 mmHg 42%
    19:00 +22°C° 0 mm 4 mps 760 mmHg 48%
    20:00 +20°C° 0 mm 4 mps 760 mmHg 49%
    21:00 +19°C° 0 mm 4 mps 761 mmHg 50%
    22:00 +18°C° 0 mm 3 mps 761 mmHg 51%
    23:00 +17°C° 0 mm 3 mps 761 mmHg 54%

    23 June, Saturday

    Time Temperature Precipitation Wind Pressure Humidity
    00:00 +17°C° 0 mm 2 mps 761 mmHg 57%
    01:00 +16°C° 0 mm 2 mps 761 mmHg 60%
    02:00 +16°C° 0 mm 2 mps 761 mmHg 62%
    03:00 +15°C° 0 mm 1 mps 761 mmHg 64%
    04:00 +15°C° 0 mm 1 mps 760 mmHg 67%
    05:00 +16°C° 0 mm 1 mps 761 mmHg 65%
    06:00 +18°C° 0 mm 2 mps 761 mmHg 64%
    07:00 +19°C° 0 mm 2 mps 761 mmHg 62%
    08:00 +21°C° 0 mm 2 mps 760 mmHg 57%
    09:00 +24°C° 0 mm 3 mps 760 mmHg 53%
    10:00 +26°C° 0 mm 3 mps 759 mmHg 48%
    11:00 +27°C° 0 mm 4 mps 759 mmHg 46%
    12:00 +28°C° 0 mm 4 mps 758 mmHg 45%
    13:00 +29°C° 0 mm 4 mps 757 mmHg 43%
    14:00 +29°C° 0 mm 4 mps 757 mmHg 47%
    15:00 +28°C° 0 mm 5 mps 756 mmHg 51%
    16:00 +28°C° 0 mm 5 mps 755 mmHg 54%
    17:00 +27°C° 0 mm 4 mps 755 mmHg 63%
    18:00 +25°C° 0 mm 4 mps 755 mmHg 71%
    19:00 +24°C° 0 mm 3 mps 754 mmHg 80%
    20:00 +22°C° 0 mm 3 mps 754 mmHg 84%
    21:00 +21°C° 0 mm 3 mps 754 mmHg 89%
    22:00 +20°C° 0 mm 2 mps 753 mmHg 93%
    23:00 +20°C° 0.1 mm 2 mps 753 mmHg 94%

    24 June, Sunday

    Time Temperature Precipitation Wind Pressure Humidity
    00:00 +20°C° 0.1 mm 2 mps 752 mmHg 94%
    01:00 +20°C° 0.1 mm 2 mps 751 mmHg 95%
    02:00 +20°C° 0.3 mm 2 mps 751 mmHg 96%
    03:00 +21°C° 0.3 mm 2 mps 750 mmHg 96%
    04:00 +21°C° 0.3 mm 2 mps 750 mmHg 97%
    05:00 +22°C° 0 mm 3 mps 750 mmHg 94%
    06:00 +24°C° 0 mm 3 mps 750 mmHg 92%
    07:00 +25°C° 0 mm 4 mps 749 mmHg 89%
    08:00 +27°C° 0 mm 4 mps 749 mmHg 78%
    09:00 +29°C° 0 mm 5 mps 749 mmHg 68%
    10:00 +30°C° 0 mm 5 mps 749 mmHg 57%
    11:00 +32°C° 0 mm 5 mps 749 mmHg 53%
    12:00 +33°C° 0 mm 5 mps 748 mmHg 49%
    13:00 +34°C° 0 mm 5 mps 748 mmHg 44%
    14:00 +34°C° 0.1 mm 6 mps 748 mmHg 48%
    15:00 +33°C° 0.1 mm 6 mps 748 mmHg 52%
    16:00 +32°C° 0.1 mm 6 mps 748 mmHg 56%
    17:00 +29°C° 0.2 mm 5 mps 749 mmHg 63%
    18:00 +27°C° 0.2 mm 5 mps 750 mmHg 70%
    19:00 +25°C° 0.2 mm 5 mps 750 mmHg 77%
    20:00 +23°C° 0 mm 5 mps 751 mmHg 75%
    21:00 +21°C° 0 mm 5 mps 752 mmHg 73%
    22:00 +20°C° 0 mm 5 mps 753 mmHg 71%
    23:00 +19°C° 0 mm 4 mps 753 mmHg 71%
    Show more